Location: Pedholt
(56.0260°N, 10.2097°E)
Time: 18:10:57
(UTC+00:00)

A-11 Canister half - Pass Details

Date: 05 August 2021
Orbit: 1515 x 1685 km, 47.2° (Epoch: 20 September)

Event Time Altitude Azimuth Distance (km) Brightness Sun altitude
Rises 15:19:40 0° 219° (SW) 4,761 12.4 31.2°
Reaches altitude 10° 15:23:01 10° 211° (SSW) 3,803 11.9 30.8°
Maximum altitude 15:31:30 36° 150° (SSE) 2,383 10.2 29.6°
Drops below altitude 10° 15:40:15 10° 89° (E) 3,922 10.7 28.4°
Sets 15:43:45 0° 82° (E) 4,927 11.1 27.9°
